[[{"header":{"parameterUnit":"m.s-1","parameterCategory":1,"la1":30.2991,"la2":30.254,"lo1":-89.0895,"lo2":-89.0444,"dy":0.0017,"dx":0.0017,"nx":28,"ny":28,"refTime":"2024-07-21T09:00:00:Z","depth":0,"parameterNumber":2,"parameterNumberName":"U-component_of_WINDS"},"data":[0,0,0,0,0,0,0,0,0,0,0,0,0,0,0,0,0,0,0,0,0,0,0,0,0,0,0,0,0,0,0,0,0,0,0,0,0,0,0,0,0,0,0,0,0,0,0,0,0,0,0,0,0,0,0,0,0,0,2.6653,2.6654,0,2.6756,2.6757,2.6758,2.6775,2.6774,2.6774,2.6773,2.6879,2.6883,2.6887,0,0,0,0,0,0,0,0,0,0,0,0,0,2.6472,2.6475,2.6653,2.6654,2.6655,2.6756,2.6757,2.6759,2.6775,2.6774,2.6773,2.6772,2.6878,2.6883,2.6887,0,0,0,0,0,0,0,0,0,0,0,0,0,2.656,2.6476,2.6652,2.6676,2.6679,2.6755,2.6757,2.6759,2.6776,2.6774,2.6773,2.6772,2.6877,2.6882,2.6888,2.6949,0,0,2.6904,2.6907,0,0,0,0,0,0,0,0,2.6555,2.6567,2.6671,2.6674,2.6678,2.6751,2.6733,2.6823,2.6776,2.6739,2.6773,2.6771,2.6838,2.6847,2.6869,2.6954,2.6958,2.6905,2.6908,2.6911,2.6912,0,0,0,0,0,0,0,2.6549,2.6563,2.6694,2.6673,2.6677,2.6682,2.6693,2.675,2.6795,2.6742,2.6744,2.6756,2.684,2.6864,2.6872,2.696,2.6905,2.691,2.6913,2.6915,2.7101,2.7102,0,0,0,0,0,0,2.6539,2.6557,2.669,2.6697,2.6612,2.6686,2.6698,2.6729,2.6794,2.6803,2.6757,2.6756,2.6855,2.6865,2.6875,2.6952,2.6911,2.6916,2.6919,2.7099,2.7101,2.7103,0,0,0,0,0,0,2.6535,2.655,2.6686,2.6627,2.6645,2.6691,2.6725,2.6732,2.6756,2.6805,2.6813,2.6773,2.6854,2.6868,2.693,2.6956,2.6918,2.6923,2.7097,2.71,2.7102,2.7104,0,0,0,0,0,0,2.6529,2.6549,2.6572,2.6628,2.6648,2.6739,2.6727,2.6735,2.6765,2.6765,2.6822,2.6831,2.6854,2.6922,2.6936,2.6962,2.6928,2.7095,2.7099,2.7101,2.7102,2.7106,2.711,0,0,0,0,0,2.6523,2.6568,2.6573,2.6589,2.6678,2.674,2.6752,2.6778,2.6767,2.6791,2.6823,2.6829,2.6951,2.6928,2.6944,2.6973,2.7094,2.7098,2.7101,2.71,2.7105,2.711,0,0,0,0,0,0,2.6514,2.6576,2.6582,2.6646,2.6688,2.6743,2.6774,2.6782,2.6828,2.6826,2.6857,2.687,2.6931,2.6958,2.6932,2.7036,2.7022,2.7029,2.7015,2.7021,2.7025,2.7017,2.6932,0,0,0,0,0,2.6519,2.6564,2.6616,2.6668,2.6689,2.6728,2.6756,2.6772,2.6817,2.6834,2.6871,2.6914,2.6962,2.6993,2.704,2.7106,2.7119,2.7134,2.7138,2.7141,2.7146,2.7184,2.7191,2.7115,2.7115,2.7115,0,0,2.6531,2.657,2.6597,2.6667,2.6701,2.6748,2.6742,2.6791,2.6826,2.6842,2.6903,2.6932,2.6982,2.7047,2.7078,2.7072,2.7171,2.7145,2.7148,2.7151,2.7189,2.7196,2.7202,2.7118,2.7117,2.7117,0,0,2.6576,2.661,2.6658,2.6692,2.6744,2.677,2.6781,2.6836,2.6855,2.6917,2.693,2.6973,2.7055,2.709,2.7119,2.718,2.7187,2.7194,2.7215,2.7251,2.7257,2.7263,2.7285,2.7292,2.72,2.72,2.72,0,2.6584,2.6654,2.6681,2.673,2.6761,2.6778,2.6826,2.6859,2.6923,2.6945,2.6937,2.7042,2.7077,2.715,2.7165,2.7188,2.7203,2.7187,2.7254,2.726,2.7266,2.7287,2.7295,2.72,2.72,2.72,2.72,0,2.6662,2.671,2.6742,2.6804,2.6839,2.6888,2.6923,2.6955,2.6969,2.6996,2.706,2.7103,2.7159,2.7178,2.7192,2.7255,2.7249,2.7248,2.7234,2.7273,2.7293,2.7302,2.7201,2.7201,2.7201,2.72,0,0,2.6702,2.678,2.6791,2.682,2.6879,2.6917,2.6967,2.7022,2.705,2.7094,2.7137,2.7207,2.7206,2.7239,2.7258,2.729,2.7336,2.7285,2.7286,2.7293,2.7408,2.7408,2.7417,2.7341,2.7343,2.7344,2.7404,0,2.6755,2.6843,2.687,2.6945,2.699,2.7008,2.7051,2.7093,2.712,2.7163,2.7193,2.7242,2.7237,2.7257,2.729,2.7323,2.7359,2.7319,2.7382,2.7384,2.7368,2.7428,2.7428,2.7482,2.7412,2.7413,2.7414,0,2.6827,2.6872,2.6952,2.7006,2.7026,2.7065,2.7118,2.7159,2.7207,2.7224,2.7262,2.7278,2.7332,2.7316,2.7391,2.7363,2.7391,2.7411,2.7414,2.742,2.7401,2.7436,2.75,2.7507,2.7427,2.7426,2.7425,0,2.6849,2.693,2.6989,2.7013,2.7077,2.7104,2.7133,2.7179,2.7211,2.7258,2.7279,2.7332,2.736,2.7401,2.7432,2.7417,2.7504,2.7491,2.7521,2.752,2.7538,2.7536,2.7607,2.7556,2.7556,2.7556,2.7556,0,2.6904,2.6951,2.6999,2.7035,2.709,2.7121,2.7174,2.7203,2.7245,2.7287,2.7306,2.7345,2.7383,2.7428,2.7453,2.7511,2.7524,2.754,2.7546,2.7538,2.7536,2.7556,2.7553,2.7558,2.7558,2.7557,2.7557,0,2.6937,2.6971,2.7035,2.7092,2.7107,2.7145,2.7193,2.7229,2.7258,2.7311,2.7326,2.737,2.7424,2.7458,2.7527,2.7544,2.7608,2.7613,2.7592,2.7594,2.7622,2.7619,2.7708,2.7721,2.7662,2.7662,2.7663,0,2.6969,2.7007,2.7067,2.7097,2.7125,2.7173,2.7205,2.7238,2.7271,2.7329,2.7358,2.7414,2.7459,2.7545,2.7584,2.7637,2.7643,2.7671,2.7651,2.7643,2.7644,2.7641,2.7645,2.7674,2.7674,2.7674,2.7675,0,2.7024,2.7039,2.7085,2.7137,2.7176,2.7219,2.7262,2.7285,2.7325,2.7362,2.7417,2.7453,2.7523,2.7578,2.7635,2.7665,2.7677,2.7681,2.7691,2.7683,2.7669,2.7677,2.76,2.7678,2.7678,2.7678,2.7678,2.7677,2.7058,2.7092,2.714,2.7191,2.7227,2.7267,2.7304,2.7337,2.7383,2.7443,2.7459,2.7517,2.7566,2.7643,2.7675,2.7721,2.7718,2.7732,2.7735,2.7738,2.7739,2.7662,2.7732,2.7732,2.7732,2.7732,2.7732,0,2.7113,2.7145,2.7192,2.7251,2.7292,2.7299,2.7348,2.7381,2.7432,2.7476,2.7521,2.7585,2.7639,2.7682,2.7738,2.7766,2.7773,2.778,2.7778,2.7785,2.7738,2.7724,2.7773,2.7773,2.7773,2.7773,2.7773,2.7773,2.7146,2.7205,2.7226,2.7303,2.7335,2.7391,2.7418,2.7456,2.7491,2.7562,2.7606,2.7634,2.7679,2.7738,2.7788,2.7799,2.7819,2.7824,2.7837,2.7793,2.7788,2.7783,2.777,2.7828,2.7828,2.7879,2.788,2.788]},{"header":{"parameterUnit":"m.s-1","parameterCategory":1,"la1":30.2991,"la2":30.254,"lo1":-89.0895,"lo2":-89.0444,"dy":0.0017,"dx":0.0017,"nx":28,"ny":28,"refTime":"2024-07-21T09:00:00:Z","depth":0,"parameterNumber":3,"parameterNumberName":"V-component_of_WINDS"},"data":[0,0,0,0,0,0,0,0,0,0,0,0,0,0,0,0,0,0,0,0,0,0,0,0,0,0,0,0,0,0,0,0,0,0,0,0,0,0,0,0,0,0,0,0,0,0,0,0,0,0,0,0,0,0,0,0,0,0,-0.4918,-0.4918,0,-0.4907,-0.4907,-0.4907,-0.4901,-0.4901,-0.4901,-0.4901,-0.4889,-0.4889,-0.4888,0,0,0,0,0,0,0,0,0,0,0,0,0,-0.4934,-0.4934,-0.4918,-0.4918,-0.4918,-0.4907,-0.4907,-0.4907,-0.4901,-0.4901,-0.4901,-0.4901,-0.4889,-0.4889,-0.4888,0,0,0,0,0,0,0,0,0,0,0,0,0,-0.4925,-0.4934,-0.4918,-0.4914,-0.4913,-0.4907,-0.4907,-0.4906,-0.4901,-0.4901,-0.4901,-0.4901,-0.4889,-0.4889,-0.4888,-0.4886,0,0,-0.4887,-0.4887,0,0,0,0,0,0,0,0,-0.4926,-0.4925,-0.4914,-0.4914,-0.4913,-0.4905,-0.4908,-0.49,-0.4901,-0.4905,-0.4901,-0.4901,-0.4894,-0.4893,-0.4891,-0.4885,-0.4885,-0.4887,-0.4887,-0.4886,-0.4886,0,0,0,0,0,0,0,-0.4927,-0.4925,-0.4914,-0.4914,-0.4914,-0.4912,-0.4911,-0.4906,-0.49,-0.4905,-0.4905,-0.4903,-0.4894,-0.4892,-0.4891,-0.4884,-0.4887,-0.4886,-0.4886,-0.4886,-0.4875,-0.4875,0,0,0,0,0,0,-0.4928,-0.4926,-0.4914,-0.4913,-0.492,-0.4912,-0.491,-0.4908,-0.49,-0.4899,-0.4903,-0.4903,-0.4893,-0.4892,-0.4891,-0.4887,-0.4886,-0.4886,-0.4886,-0.4875,-0.4875,-0.4875,0,0,0,0,0,0,-0.4928,-0.4927,-0.4914,-0.4919,-0.4918,-0.4911,-0.4909,-0.4908,-0.4905,-0.4899,-0.4898,-0.4902,-0.4893,-0.4891,-0.4887,-0.4886,-0.4886,-0.4885,-0.4875,-0.4875,-0.4875,-0.4879,0,0,0,0,0,0,-0.4929,-0.4927,-0.4926,-0.4919,-0.4917,-0.4911,-0.4909,-0.4907,-0.4905,-0.4904,-0.4898,-0.4896,-0.4892,-0.4888,-0.4886,-0.4886,-0.4885,-0.4875,-0.4875,-0.4875,-0.4879,-0.4879,-0.4879,0,0,0,0,0,-0.4929,-0.4928,-0.4926,-0.4925,-0.4916,-0.4911,-0.491,-0.4905,-0.4905,-0.4903,-0.4899,-0.4897,-0.4886,-0.4887,-0.4886,-0.4885,-0.4875,-0.4875,-0.4875,-0.4879,-0.4879,-0.4879,0,0,0,0,0,0,-0.4935,-0.4927,-0.4925,-0.4921,-0.4917,-0.491,-0.4909,-0.4906,-0.4902,-0.4901,-0.4896,-0.4895,-0.489,-0.4887,-0.4888,-0.4882,-0.488,-0.488,-0.4884,-0.4884,-0.4884,-0.4885,-0.4885,0,0,0,0,0,-0.4936,-0.4932,-0.4926,-0.4923,-0.4921,-0.4915,-0.4913,-0.491,-0.4905,-0.4903,-0.4898,-0.4893,-0.4889,-0.4886,-0.4882,-0.4878,-0.4877,-0.4877,-0.4877,-0.4877,-0.4877,-0.4874,-0.4874,-0.4875,-0.4875,-0.4875,0,0,-0.4938,-0.4933,-0.4931,-0.4924,-0.492,-0.4916,-0.4914,-0.491,-0.4907,-0.4902,-0.4898,-0.4894,-0.4888,-0.4884,-0.4882,-0.4881,-0.4877,-0.4877,-0.4878,-0.4877,-0.4874,-0.4874,-0.4874,-0.4875,-0.4875,-0.4875,0,0,-0.4939,-0.4935,-0.4932,-0.4928,-0.4922,-0.4918,-0.4918,-0.4911,-0.4908,-0.4904,-0.49,-0.4896,-0.4889,-0.4885,-0.4882,-0.4881,-0.4878,-0.488,-0.4881,-0.4878,-0.4878,-0.4878,-0.4877,-0.4877,-0.4879,-0.4879,-0.4879,0,-0.4942,-0.4936,-0.4931,-0.4927,-0.4924,-0.492,-0.4916,-0.4913,-0.4906,-0.4904,-0.4903,-0.4893,-0.4889,-0.4884,-0.4884,-0.4881,-0.488,-0.488,-0.4879,-0.4878,-0.4878,-0.4878,-0.4877,-0.488,-0.488,-0.488,-0.488,0,-0.494,-0.4936,-0.4934,-0.4927,-0.4924,-0.4921,-0.4915,-0.4912,-0.4909,-0.4905,-0.49,-0.4895,-0.4889,-0.4888,-0.4885,-0.4882,-0.4881,-0.488,-0.4878,-0.4879,-0.4878,-0.4877,-0.488,-0.488,-0.488,-0.488,0,0,-0.4945,-0.4935,-0.4934,-0.4931,-0.4923,-0.492,-0.4916,-0.4911,-0.4908,-0.4904,-0.49,-0.4894,-0.4892,-0.4889,-0.4885,-0.4883,-0.4882,-0.4881,-0.4881,-0.4881,-0.4877,-0.4879,-0.4878,-0.488,-0.488,-0.488,-0.4878,0,-0.4945,-0.4938,-0.4933,-0.4928,-0.4924,-0.4919,-0.4916,-0.4911,-0.4907,-0.4903,-0.4898,-0.4894,-0.4892,-0.489,-0.4887,-0.4882,-0.4881,-0.4882,-0.4876,-0.4876,-0.4878,-0.4878,-0.488,-0.4878,-0.4877,-0.4877,-0.4877,0,-0.4944,-0.4939,-0.4933,-0.4926,-0.4924,-0.4921,-0.4916,-0.4912,-0.4906,-0.4903,-0.4899,-0.4895,-0.4891,-0.489,-0.4883,-0.4884,-0.4881,-0.4879,-0.4878,-0.4878,-0.4877,-0.4877,-0.4878,-0.4877,-0.4877,-0.4877,-0.4877,0,-0.4948,-0.494,-0.4935,-0.4932,-0.4924,-0.4922,-0.4918,-0.4912,-0.4909,-0.4904,-0.4902,-0.4896,-0.4893,-0.4888,-0.4883,-0.4883,-0.4877,-0.4875,-0.4874,-0.4874,-0.4873,-0.4873,-0.4873,-0.4871,-0.4871,-0.4871,-0.4872,0,-0.4948,-0.4945,-0.4937,-0.4934,-0.493,-0.4924,-0.4921,-0.4916,-0.4911,-0.4907,-0.4903,-0.4899,-0.4892,-0.4888,-0.4884,-0.4878,-0.4877,-0.4875,-0.4874,-0.4875,-0.4875,-0.4873,-0.4873,-0.4871,-0.4871,-0.4871,-0.4871,0,-0.4952,-0.4946,-0.4941,-0.4933,-0.4931,-0.4929,-0.4922,-0.4919,-0.4914,-0.4909,-0.4908,-0.4901,-0.4895,-0.489,-0.4882,-0.4879,-0.4874,-0.4873,-0.4876,-0.4876,-0.4875,-0.4875,-0.4873,-0.4872,-0.4871,-0.4871,-0.4871,0,-0.4953,-0.495,-0.4942,-0.4939,-0.4935,-0.4931,-0.4927,-0.4921,-0.4918,-0.491,-0.4908,-0.4902,-0.4897,-0.4888,-0.4882,-0.4876,-0.4875,-0.4874,-0.4874,-0.4875,-0.4875,-0.4875,-0.4874,-0.4875,-0.4875,-0.4875,-0.4875,0,-0.4955,-0.4952,-0.4947,-0.4941,-0.4937,-0.4932,-0.4927,-0.4925,-0.4917,-0.4914,-0.4908,-0.4904,-0.4896,-0.489,-0.4883,-0.4879,-0.4876,-0.4875,-0.4874,-0.4876,-0.4878,-0.4877,-0.4877,-0.4875,-0.4875,-0.4875,-0.4875,-0.4875,-0.4957,-0.4954,-0.4948,-0.4942,-0.4938,-0.4933,-0.4929,-0.4924,-0.4919,-0.4912,-0.4909,-0.4903,-0.4897,-0.4887,-0.4883,-0.4878,-0.4877,-0.4876,-0.4876,-0.4876,-0.4876,-0.4879,-0.4877,-0.4877,-0.4877,-0.4877,-0.4877,0,-0.4958,-0.4954,-0.4949,-0.4942,-0.4937,-0.4934,-0.4928,-0.4925,-0.492,-0.4914,-0.4909,-0.4902,-0.4896,-0.4889,-0.4883,-0.488,-0.4878,-0.4878,-0.4879,-0.4878,-0.4878,-0.4879,-0.488,-0.488,-0.488,-0.488,-0.488,-0.488,-0.4959,-0.4954,-0.495,-0.4943,-0.4938,-0.4932,-0.4929,-0.4924,-0.4919,-0.4912,-0.4907,-0.4902,-0.4896,-0.4889,-0.4883,-0.4881,-0.4879,-0.488,-0.4878,-0.4878,-0.4878,-0.4877,-0.4878,-0.4879,-0.4879,-0.4878,-0.4878,-0.4878]}]]